User: anonymous   Login
Location: Unspecified
(0.0000°N, 0.0000°E)
Time: 15:51:47
(UTC+00:00)
Language:

Cosmos 1809 - Orbit

View from above orbital plane
View from above orbital plane
View from above satellite
View from above satellite

Ground track
Ground track

The orbit data is extracted from the following two-line orbital elements,

1 17241U 86101A   18203.63350753 +.00000040 +00000-0 +22979-4 0  9994
2 17241 082.5290 058.9031 0015090 346.1613 066.4576 13.84115179595483
Epoch (UTC): 22 July 2018 15:12:15
Eccentricity: 0.0015090
inclination: 82.5290°
perigee height: 938 km
apogee height: 960 km
right ascension of ascending node: 58.9031°
argument of perigee: 346.1613°
revolutions per day: 13.84115179
mean anomaly at epoch: 66.4576°
orbit number at epoch: 59548

The dashed part of the orbit path shows where the satellite is in the earth's shadow,  

DLR